Regional Weather Roundup
Issued by NWS Upton, NY

Home | Current Version | Previous Version | Text Only | Print | Product List | Glossary On
Versions: 1 2 3 4 5 6 7 8 9 10 11 12 13 14 15 16 17 18 19 20 21 22 23 24 25 26 27 28 29 30 31 32 33 34 35 36 37 38 39 40 41 42 43 44 45 46 47 48 49 50
000
ASUS41 KOKX 210607
RWROKX

REGIONAL WEATHER ROUNDUP
NATIONAL WEATHER SERVICE NEW YORK NY
200 AM EDT TUE APR 21 2015

NOTE: "FAIR" INDICATES FEW OR NO CLOUDS BELOW 12,000 FEET WITH NO
SIGNIFICANT WEATHER AND/OR OBSTRUCTIONS TO VISIBILITY.

NYZ071-072-176-178-NJZ106-104-210700-
NEW YORK CITY METRO AREA


CITY           SKY/WX    TMP DP  RH WIND       PRES   REMARKS
CENTRAL PARK   CLOUDY    52  52 100 CALM      29.60S FOG
LAGUARDIA APRT CLOUDY    54  52  93 S6        29.56F
KENNEDY INTL   LGT RAIN  52  50  93 S8        29.58S VSB 1/2
NEWARK/LIBERTY CLOUDY    53  53 100 CALM      29.57F FOG
BRNX BOT. GARD   N/A     50  50 100 CALM      29.60R
TETERBORO      CLOUDY    54  52  93 CALM      29.56S FOG
$$

NYZ177-179-078>081-210700-
LONG ISLAND NEW YORK

CITY           SKY/WX    TMP DP  RH WIND       PRES   REMARKS
FARMINGDALE    CLOUDY    54  53  97 SW12      29.58S FOG
ISLIP          CLOUDY    55  54  96 S12       29.57R FOG
SHIRLEY        FOG       55  54  96 S14G21    29.58F VSB 1/2
WESTHAMPTON    FOG       56  55  97 S13G22    29.59F VSB 1/2
MONTAUK POINT    N/A     51  50  96 VRB6G18   29.62F
$$

NYZ052-065-067-210700-
HUDSON VALLEY

CITY           SKY/WX    TMP DP  RH WIND       PRES   REMARKS
WHITE PLAINS   CLOUDY    53  53 100 SE5       29.56S FOG
NEWBURGH       CLOUDY    54  54 100 NW12      29.59R FOG
MONTGOMERY     CLOUDY    54  50  87 CALM      29.57R
POUGHKEEPSIE   CLOUDY    55  52  89 W10G30    29.58R
ALBANY         TSTM      52  47  83 W15       29.59S
$$

NJZ001-105-106-008-010-013-015-019>022-104-210700-
NEW JERSEY

CITY           SKY/WX    TMP DP  RH WIND       PRES   REMARKS
NEWARK/LIBERTY CLOUDY    53  53 100 CALM      29.57F FOG
TETERBORO      CLOUDY    54  52  93 CALM      29.56S FOG
CALDWELL       LGT RAIN  55  54  96 NW3       29.60R FOG
MORRISTOWN     RAIN      57  55  94 N9        29.57F
SOMERVILLE     LGT RAIN  57  55  93 VRB3      29.56R FOG
SUSSEX         LGT RAIN  55  51  86 CALM      29.60S
ANDOVER          N/A     55  53  93 VRB3      29.59S
TRENTON        LGT RAIN  60  55  83 W6        29.59R
MILLVILLE      FAIR      60  57  89 CALM      29.55F
ATLANTIC CITY  FAIR      62  57  83 SE9       29.56F
WRIGHTSTOWN    CLOUDY    61  59  94 SW7       29.51F
TOMS RIVER     FAIR      61  57  88 S6        29.56F
BELMAR         CLOUDY    61  54  77 SW6       29.55F
$$

PAZ047>061-062-071-210700-
EASTERN PENNSYLVANIA

CITY           SKY/WX    TMP DP  RH WIND       PRES   REMARKS
PHILADELPHIA   LGT RAIN  61  57  87 NW6       29.56R
ALLENTOWN      RAIN      55  53  93 SW7       29.60R FOG
SCRANTON       LGT RAIN  56  52  86 MISG      29.56F
$$

CTZ002-004>006-009-010-012-RIZ004-006-007-MAZ004-011-015-210700-
SOUTHERN NEW ENGLAND
 IN CT

CITY           SKY/WX    TMP DP  RH WIND       PRES   REMARKS
BRADLEY INTL   DRIZZLE   50  48  93 N8        29.59F FOG
HARTFORD       CLOUDY    51  50  96 VRB6      29.59F FOG
DANBURY        CLOUDY    54  54 100 VRB3      29.58S THUNDER FOG
WTRBRY/OXFORD  CLOUDY    55  50  82 S9G17     29.61R THUNDER
BRIDGEPORT     TSTM      50  50 100 NE10      29.59R FOG
MERIDEN        LGT RAIN  54  52  93 CALM      29.58F FOG
NEW HAVEN      TSTM      53  52  96 VRB6      29.60R FOG
CHESTER        FOG       52  52 100 E5        29.60F VSB<1/4
GROTON         FOG       50  50 100 E6        29.61F VSB 1/4
WILLIMANTIC    LGT RAIN  55  54  96 CALM      29.62F

 IN RI

CITY           SKY/WX    TMP DP  RH WIND       PRES   REMARKS
PROVIDENCE     FOG       51  51 100 S12       29.64F VSB 3/4
BLOCK ISLAND   CLOUDY    48  46  93 S14       29.63F VSB 1/4
WESTERLY       FOG       49  49 100 SE10      29.63F VSB 1/4

 IN MA

CITY           SKY/WX    TMP DP  RH WIND       PRES   REMARKS
BOSTON         FOG       50  50 100 SE13      29.65F VSB 1
WORCESTER      LGT RAIN  48  47  96 NE5       29.63F VSB 1/4
WESTFIELD      LGT RAIN  49  47  93 N10       29.60F FOG
PROVINCETOWN   CLOUDY   N/A N/A N/A SE22G29   29.70F
NANTUCKET      LGT RAIN  51  50  96 SE20      29.70F VSB 1/2
$$

ANZ330-335-338-340-345-350-353-355-210700-
COASTAL MARINE OBSERVATIONS


STATION/POSITION TIME  SKY/WX   TEMP    WIND        PRES    VSBY  WAVE
                                AIR SEA DIR/SP/G                  HT/PER
                 (UTC)          (F)     (DEG/KT/KT) (MB)    (MI)  (FT/S)
NY HARB ENTRANCE 0550            49 44  200/ 16/ 17 1000.7          8/11
4S FIRE IS       0503               43                N/A           9/11
20S FIRE ISLAND  0450               43              1002.2         10/11
23SW MTP         NOT AVBL
HUDSON CANYON    NOT AVBL
EXECUTION ROCKS  NOT AVBL
WESTERN LI SOUND NOT AVBL
CENTRAL LI SOUND NOT AVBL
EASTERN LI SOUND 0500            44     120/  4/  8   N/A
ROBBINS REEF     0500            51     110/  2/  3 1000.0
$$


>>>>>>>>>>>>>>>>>>>>>>>>>>>> KEY <<<<<<<<<<<<<<<<<<<<<<<<<<<
>                                                          <
>     SKY/WX - SKY CONDITION/PRESENT WEATHER               <
>     TMP    - TEMPERATURE IN FAHRENHEIT                   <
>     DP     - DEWPOINT IN FAHRENHEIT                      <
>     RH     - RELATIVE HUMIDITY IN PERCENT                <
>     WIND   - DIRECTION AND SPEED IN MPH                  <
>     PRES   - MEAN SEA LEVEL PRESSURE IN INCHES OF HG     <
>     WCI    - WIND CHILL INDEX                            <
>     VSB    - VISIBILITY IN MILES                         <
>     HX     - HEAT INDEX                                  <
>     TC     - TEMPERATURE IN CELSIUS                      <
>     VRB    - VARIABLE WIND DIRECTION                     <
>                                                          <
>>>>>>>>>>>>>>>>>>>>>>>>>>>> KEY <<<<<<<<<<<<<<<<<<<<<<<<<<<




USA.gov is the U.S. government's official web portal to all federal, state and local government web resources and services.